TimeCST,TemperatureF,Dew PointF,Humidity,Sea Level PressureIn,VisibilityMPH,Wind Direction,Wind SpeedMPH,Gust SpeedMPH,PrecipitationIn,Events,Conditions,WindDirDegrees,DateUTC
12:15 AM,23.7,21.7,92,30.14,10.0,SSW,3.5,-,N/A,,Clear,200,2013-02-12 06:15:00
12:35 AM,23.7,21.7,92,30.14,10.0,Calm,Calm,-,N/A,,Clear,0,2013-02-12 06:35:00
12:55 AM,23.5,21.7,93,30.14,10.0,Calm,Calm,-,N/A,,Clear,0,2013-02-12 06:55:00
1:15 AM,23.2,21.4,93,30.14,10.0,Calm,Calm,-,N/A,,Clear,0,2013-02-12 07:15:00
1:35 AM,23.4,21.6,93,30.13,10.0,SSW,4.6,-,N/A,,Clear,210,2013-02-12 07:35:00
1:55 AM,23.2,21.2,92,30.13,10.0,SSW,4.6,-,N/A,,Clear,210,2013-02-12 07:55:00
2:15 AM,23.2,21.4,93,30.13,10.0,SSW,3.5,-,N/A,,Clear,200,2013-02-12 08:15:00
2:35 AM,23.0,21.4,94,30.12,10.0,Calm,Calm,-,N/A,,Clear,0,2013-02-12 08:35:00
2:55 AM,22.3,20.8,94,30.11,10.0,Calm,Calm,-,N/A,,Clear,0,2013-02-12 08:55:00
3:15 AM,22.1,21.0,96,30.10,10.0,Calm,Calm,-,N/A,,Clear,0,2013-02-12 09:15:00
3:35 AM,21.7,20.5,95,30.09,10.0,Calm,Calm,-,N/A,,Clear,0,2013-02-12 09:35:00
3:55 AM,21.2,20.5,97,30.08,10.0,Calm,Calm,-,N/A,,Clear,0,2013-02-12 09:55:00
4:15 AM,21.7,21.2,98,30.08,10.0,Calm,Calm,-,N/A,,Clear,0,2013-02-12 10:15:00
4:35 AM,23.2,21.7,94,30.07,10.0,SSW,3.5,-,N/A,,Clear,210,2013-02-12 10:35:00
4:55 AM,23.7,21.7,92,30.07,10.0,SSW,3.5,-,N/A,,Clear,210,2013-02-12 10:55:00
5:15 AM,23.9,22.1,93,30.08,10.0,SSW,4.6,-,N/A,,Clear,200,2013-02-12 11:15:00
5:35 AM,24.8,22.5,91,30.08,10.0,South,8.1,-,N/A,,Clear,190,2013-02-12 11:35:00
5:55 AM,24.4,22.1,91,30.08,10.0,SSW,4.6,-,N/A,,Clear,210,2013-02-12 11:55:00
6:15 AM,24.6,22.3,91,30.08,10.0,SSW,5.8,-,N/A,,Clear,200,2013-02-12 12:15:00
6:35 AM,24.4,21.6,89,30.08,10.0,SSW,4.6,-,N/A,,Clear,210,2013-02-12 12:35:00
6:55 AM,24.3,21.2,88,30.07,10.0,SSW,3.5,-,N/A,,Clear,210,2013-02-12 12:55:00
7:15 AM,23.9,20.8,88,30.07,10.0,SSW,5.8,-,N/A,,Clear,200,2013-02-12 13:15:00
7:35 AM,23.7,20.3,87,30.06,10.0,SSW,4.6,-,N/A,,Clear,210,2013-02-12 13:35:00
7:55 AM,24.3,20.8,87,30.04,10.0,SSW,5.8,-,N/A,,Clear,210,2013-02-12 13:55:00
8:15 AM,25.9,21.2,82,30.03,10.0,SW,4.6,-,N/A,,Clear,220,2013-02-12 14:15:00
8:35 AM,27.3,22.1,81,30.03,10.0,SSW,5.8,-,N/A,,Clear,210,2013-02-12 14:35:00
8:55 AM,28.9,22.8,78,30.02,10.0,WSW,5.8,-,N/A,,Clear,240,2013-02-12 14:55:00
9:15 AM,31.1,23.7,74,30.01,10.0,WSW,9.2,-,N/A,,Clear,250,2013-02-12 15:15:00
9:35 AM,31.8,25.0,76,30.04,10.0,South,11.5,-,N/A,,Clear,190,2013-02-12 15:35:00
9:55 AM,32.5,26.8,79,30.04,10.0,South,10.4,-,N/A,,Clear,190,2013-02-12 15:55:00
10:15 AM,34.3,25.9,71,30.03,10.0,SW,8.1,-,N/A,,Clear,230,2013-02-12 16:15:00
10:35 AM,36.9,25.9,64,30.03,10.0,WSW,8.1,-,N/A,,Clear,240,2013-02-12 16:35:00
10:55 AM,39.6,25.3,57,30.02,10.0,WSW,8.1,-,N/A,,Clear,240,2013-02-12 16:55:00
11:15 AM,41.5,24.1,50,30.02,10.0,SW,15.0,18.4,N/A,,Clear,230,2013-02-12 17:15:00
11:35 AM,43.0,26.1,51,30.02,10.0,SSW,9.2,-,N/A,,Clear,200,2013-02-12 17:35:00
11:55 AM,44.4,25.5,48,30.01,10.0,SSW,11.5,-,N/A,,Clear,210,2013-02-12 17:55:00
12:15 PM,45.7,25.3,45,30.00,10.0,SSW,12.7,-,N/A,,Clear,210,2013-02-12 18:15:00
12:35 PM,45.9,25.3,45,29.99,10.0,SW,6.9,10.4,N/A,,Clear,230,2013-02-12 18:35:00
12:55 PM,46.4,25.0,43,29.98,10.0,SW,9.2,-,N/A,,Clear,230,2013-02-12 18:55:00
1:15 PM,46.9,24.3,41,29.97,10.0,WSW,12.7,-,N/A,,Clear,250,2013-02-12 19:15:00
1:35 PM,48.9,24.3,38,29.96,10.0,WSW,8.1,-,N/A,,Clear,240,2013-02-12 19:35:00
1:55 PM,49.1,23.0,36,29.94,10.0,WSW,11.5,18.4,N/A,,Clear,250,2013-02-12 19:55:00
2:15 PM,48.9,21.7,34,29.93,10.0,WSW,12.7,16.1,N/A,,Clear,250,2013-02-12 20:15:00
2:35 PM,49.3,21.9,34,29.92,10.0,WSW,12.7,17.3,N/A,,Clear,240,2013-02-12 20:35:00
2:55 PM,49.5,20.5,32,29.92,10.0,West,13.8,19.6,N/A,,Clear,260,2013-02-12 20:55:00
3:15 PM,49.8,20.1,31,29.92,10.0,West,10.4,-,N/A,,Clear,260,2013-02-12 21:15:00
3:35 PM,50.0,19.4,30,29.91,10.0,West,12.7,17.3,N/A,,Clear,270,2013-02-12 21:35:00
3:55 PM,50.4,18.9,29,29.91,10.0,West,15.0,18.4,N/A,,Clear,280,2013-02-12 21:55:00
4:15 PM,49.8,17.6,28,29.91,10.0,West,9.2,-,N/A,,Clear,270,2013-02-12 22:15:00
4:35 PM,49.1,17.1,28,29.90,10.0,WNW,11.5,-,N/A,,Clear,290,2013-02-12 22:35:00
4:55 PM,48.2,18.5,31,29.90,10.0,West,6.9,-,N/A,,Clear,280,2013-02-12 22:55:00
5:15 PM,46.4,19.6,34,29.90,10.0,West,6.9,-,N/A,,Clear,260,2013-02-12 23:15:00
5:35 PM,43.3,21.0,41,29.90,10.0,WNW,6.9,-,N/A,,Clear,290,2013-02-12 23:35:00
5:55 PM,37.9,22.8,55,29.90,10.0,WNW,4.6,-,N/A,,Clear,290,2013-02-12 23:55:00
6:15 PM,36.1,21.9,56,29.90,10.0,West,3.5,-,N/A,,Clear,280,2013-02-13 00:15:00
6:35 PM,33.8,22.1,62,29.91,10.0,WNW,6.9,-,N/A,,Clear,290,2013-02-13 00:35:00
6:55 PM,32.4,22.6,67,29.91,10.0,NW,8.1,-,N/A,,Clear,310,2013-02-13 00:55:00
7:15 PM,32.0,23.2,70,29.91,10.0,WNW,3.5,-,N/A,,Clear,300,2013-02-13 01:15:00
7:35 PM,31.1,23.4,73,29.92,10.0,West,6.9,-,N/A,,Clear,280,2013-02-13 01:35:00
8:15 PM,31.8,24.6,75,29.92,10.0,WNW,6.9,-,N/A,,Clear,300,2013-02-13 02:15:00
8:35 PM,30.6,24.4,78,29.92,10.0,WNW,5.8,-,N/A,,Clear,300,2013-02-13 02:35:00
8:55 PM,30.7,25.5,81,29.92,10.0,West,5.8,-,N/A,,Clear,270,2013-02-13 02:55:00
9:15 PM,30.0,25.0,82,29.92,10.0,West,4.6,-,N/A,,Clear,260,2013-02-13 03:15:00
9:35 PM,30.0,24.8,81,29.92,10.0,West,4.6,-,N/A,,Clear,260,2013-02-13 03:35:00
9:55 PM,31.6,25.3,78,29.92,10.0,West,3.5,-,N/A,,Clear,280,2013-02-13 03:55:00
10:15 PM,29.3,24.8,83,29.92,10.0,WSW,3.5,-,N/A,,Clear,250,2013-02-13 04:15:00
10:35 PM,29.1,24.1,81,29.91,10.0,West,4.6,-,N/A,,Clear,270,2013-02-13 04:35:00
10:55 PM,29.3,24.8,83,29.91,10.0,Calm,Calm,-,N/A,,Clear,0,2013-02-13 04:55:00
11:15 PM,28.2,24.4,86,29.90,10.0,Calm,Calm,-,N/A,,Clear,0,2013-02-13 05:15:00
11:35 PM,29.1,25.2,85,29.91,10.0,Calm,Calm,-,N/A,,Clear,0,2013-02-13 05:35:00
11:55 PM,26.8,23.9,89,29.90,10.0,Calm,Calm,-,N/A,,Clear,0,2013-02-13 05:55:00